FW2295 Weather Reports


Display with metric or nautical units.
time (UTC)temp
F
wind
direction
speed
MPH
gust
MPH
rain 1hr
in
rain 24hr
in
rain mn
in
humidity
%
barometer
mb
20260507013554 48 11 0.0 0.0 0.00 0.00 0.00 49 1017.7
20260507011529 49 349 0.0 3.0 0.00 0.00 0.00 48 1017.7
20260507010528 49 332 1.0 9.0 0.00 0.00 0.00 47 1017.7
20260507005518 50 321 2.0 8.0 0.00 0.00 0.00 46 1017.8
20260507004444 51 326 2.0 10.0 0.00 0.00 0.00 45 1017.8
20260507002410 50 277 3.0 9.0 0.00 0.00 0.00 46 1017.8
20260507001428 51 322 2.0 9.0 0.00 0.00 0.00 45 1017.8
20260506235441 51 300 5.0 14.0 0.00 0.00 0.00 43 1018.0
20260506234426 51 295 4.0 10.0 0.00 0.00 0.00 44 1018.0
20260506231317 51 323 4.0 10.0 0.00 0.00 0.00 44 1018.1
20260506230316 51 315 4.0 15.0 0.00 0.00 0.00 44 1018.2
20260506225251 52 341 7.0 15.0 0.00 0.00 0.00 44 1018.4
20260506223258 52 295 5.0 14.0 0.00 0.00 0.00 44 1018.3
20260506222234 52 271 5.0 12.0 0.00 0.00 0.00 44 1018.4
20260506221208 51 285 5.0 15.0 0.00 0.00 0.00 46 1018.5
20260506220150 51 326 7.0 15.0 0.00 0.00 0.00 45 1018.5
20260506215135 51 283 5.0 12.0 0.00 0.00 0.00 43 1018.5
20260506214102 51 304 6.0 13.0 0.00 0.00 0.00 44 1018.8
20260506212044 50 264 7.0 13.0 0.00 0.00 0.00 44 1018.8
20260506211035 50 305 7.0 15.0 0.00 0.00 0.00 47 1019.0
20260506210011 51 328 7.0 19.0 0.00 0.00 0.00 47 1019.1
20260506204013 50 283 6.0 17.0 0.00 0.00 0.00 46 1019.5
20260506203036 50 262 7.0 16.0 0.00 0.00 0.00 44 1019.6
20260506202020 50 295 7.0 16.0 0.00 0.00 0.00 46 1019.5
20260506201012 50 354 7.0 14.0 0.00 0.00 0.00 45 1019.5
20260506200018 50 281 8.0 17.0 0.00 0.00 0.00 47 1019.8
20260506195020 49 273 7.0 17.0 0.00 0.00 0.00 47 1019.9
20260506193958 49 271 7.0 14.0 0.00 0.00 0.00 48 1019.9
20260506193024 48 297 6.0 13.0 0.00 0.00 0.00 47 1020.0
20260506192005 49 347 6.0 15.0 0.00 0.00 0.00 49 1020.0
20260506191029 48 303 6.0 17.0 0.00 0.00 0.00 50 1020.1
20260506190033 48 282 7.0 17.0 0.00 0.00 0.00 49 1020.1
20260506185009 47 297 8.0 17.0 0.00 0.00 0.00 49 1020.2
20260506184018 47 270 7.0 14.0 0.00 0.00 0.00 50 1020.4
20260506181916 47 316 7.0 21.0 0.00 0.00 0.00 51 1020.7
20260506180906 46 284 8.0 21.0 0.00 0.00 0.00 52 1020.7
20260506175847 45 321 9.0 20.0 0.00 0.00 0.00 52 1020.8
20260506174908 45 301 9.0 17.0 0.00 0.00 0.00 52 1020.9
20260506173933 45 345 8.0 21.0 0.00 0.00 0.00 53 1020.8
20260506172917 45 290 9.0 21.0 0.00 0.00 0.00 52 1021.0
20260506171902 44 337 8.0 19.0 0.00 0.00 0.00 54 1021.0
20260506165933 44 312 7.0 15.0 0.00 0.00 0.00 54 1021.0
20260506164945 44 289 9.0 18.0 0.00 0.00 0.00 55 1021.1
20260506163920 44 292 7.0 18.0 0.00 0.00 0.00 56 1021.1
20260506162939 43 293 8.0 20.0 0.00 0.00 0.00 55 1021.1
20260506161937 43 306 7.0 20.0 0.00 0.00 0.00 54 1021.1
20260506155901 43 354 7.0 18.0 0.00 0.00 0.00 55 1021.1
20260506154914 43 354 9.0 18.0 0.00 0.00 0.00 55 1021.1
20260506152832 43 297 7.0 15.0 0.00 0.00 0.00 56 1021.1
20260506151818 43 283 8.0 15.0 0.00 0.00 0.00 54 1021.2
20260506150802 42 327 8.0 19.0 0.00 0.00 0.00 56 1021.1
20260506145742 42 330 7.0 19.0 0.00 0.00 0.00 57 1021.1
20260506144717 41 299 7.0 15.0 0.00 0.00 0.00 58 1021.2
20260506143722 41 298 6.0 14.0 0.00 0.00 0.00 59 1021.2
20260506142714 41 288 7.0 14.0 0.00 0.00 0.00 59 1021.1
20260506141650 41 291 6.0 13.0 0.00 0.00 0.00 62 1021.0
20260506140653 41 354 6.0 14.0 0.00 0.00 0.00 62 1021.0
20260506135704 40 287 7.0 14.0 0.00 0.00 0.00 63 1021.0
20260506134701 40 291 5.0 13.0 0.00 0.00 0.00 63 1021.0
20260506133654 40 289 6.0 12.0 0.00 0.00 0.00 66 1021.0
20260506131703 39 293 3.0 10.0 0.00 0.00 0.00 69 1020.9
20260506125656 39 282 2.0 9.0 0.00 0.00 0.00 69 1020.8
20260506124708 38 287 2.0 7.0 0.00 0.00 0.00 72 1020.7
20260506123646 38 310 1.0 4.0 0.00 0.00 0.00 73 1020.5
20260506122700 37 289 1.0 6.0 0.00 0.00 0.00 73 1020.3
20260506120632 37 284 2.0 6.0 0.00 0.00 0.00 73 1020.3
20260506115655 36 321 1.0 5.0 0.00 0.00 0.00 74 1020.1
20260506114658 36 281 1.0 3.0 0.00 0.00 0.00 73 1019.7
20260506113721 36 276 1.0 6.0 0.00 0.00 0.00 73 1019.6
20260506112700 36 275 1.0 6.0 0.00 0.00 0.00 73 1019.8
20260506111654 36 274 2.0 5.0 0.00 0.00 0.00 73 1019.8
20260506110702 36 278 0.0 5.0 0.00 0.00 0.00 74 1019.3
20260506105720 36 297 0.0 3.0 0.00 0.00 0.00 74 1019.3
20260506104716 36 312 0.0 3.0 0.00 0.00 0.00 73 1019.3
20260506103711 36 303 0.0 3.0 0.00 0.00 0.00 73 1019.0
20260506102717 36 300 0.0 2.0 0.00 0.00 0.00 74 1019.2
20260506101723 36 318 0.0 2.0 0.00 0.00 0.00 74 1019.0
20260506095711 35 316 1.0 3.0 0.00 0.00 0.00 77 1019.1
20260506094700 35 308 0.0 2.0 0.00 0.00 0.00 78 1019.0
20260506092713 34 314 0.0 2.0 0.00 0.00 0.00 77 1018.9
20260506091701 34 316 0.0 2.0 0.00 0.00 0.00 77 1018.7
20260506090722 34 317 0.0 0.0 0.00 0.00 0.00 77 1018.5
20260506085734 33 317 0.0 0.0 0.00 0.00 0.00 77 1018.6
20260506084732 33 318 0.0 2.0 0.00 0.00 0.00 77 1018.8
20260506083735 33 320 0.0 0.0 0.00 0.00 0.00 76 1018.8
20260506082712 33 320 0.0 1.0 0.00 0.00 0.00 76 1018.7
20260506081653 33 320 0.0 0.0 0.00 0.00 0.00 76 1018.4
20260506080700 32 320 0.0 0.0 0.00 0.00 0.00 77 1018.2
20260506072615 33 320 0.0 0.0 0.00 0.00 0.00 75 1018.2
20260506070647 33 320 0.0 0.0 0.00 0.00 0.00 74 1018.5
20260506061636 35 326 0.0 0.0 0.00 0.00 0.00 70 1018.1
20260506060702 35 326 0.0 1.0 0.00 0.00 0.00 69 1018.1
20260506050706 37 4 0.0 3.0 0.00 0.00 0.00 67 1017.7
20260506043709 38 326 0.0 4.0 0.00 0.00 0.00 66 1018.0
20260506041643 38 324 0.0 2.0 0.00 0.00 0.00 66 1018.1
20260506040705 38 324 0.0 5.0 0.00 0.00 0.00 64 1018.2
20260506035704 39 330 0.0 2.0 0.00 0.00 0.00 63 1018.0
20260506034654 39 335 0.0 2.0 0.00 0.00 0.00 61 1017.9
20260506033702 40 335 0.0 5.0 0.00 0.00 0.00 60 1017.8
20260506032638 40 339 3.0 7.0 0.00 0.00 0.00 58 1017.8
20260506031608 41 305 3.0 9.0 0.00 0.00 0.00 57 1017.6
20260506025559 42 332 3.0 9.0 0.00 0.00 0.00 56 1017.4
20260506024605 42 337 4.0 13.0 0.00 0.00 0.00 54 1017.2
20260506022634 44 323 6.0 14.0 0.00 0.00 0.00 51 1016.9
20260506021638 44 310 8.0 14.0 0.00 0.00 0.00 51 1016.8
20260506020644 45 318 7.0 14.0 0.00 0.00 0.00 51 1016.6
20260506014634 45 322 7.0 14.0 0.00 0.00 0.00 50 1016.4